Find KSM1-b

NORAD ID: 46914 Int'l Des: 2020-081 Owner: KLEOS Country: L operational
LEOCIRCULAR

Current View

Loading 3D Globe...

About KSM1-b

KSM1-b (NORAD 46914) is a satellite launched Nov 7, 2020 by KLEOS of L. It operates in LEO, CIRCULAR orbit with a mass of 10.00 kg.

Upcoming Passes

Passes for default location (London). Set your location on the main map for personalized predictions.

Altitude History

Loading altitude history...

Two-Line Element Set

1 46914U 20081K 26195.21058189 .00004394 00000-0 17642-3 0 9995
2 46914 36.9018 262.2642 0004612 156.0158 204.0807 15.24877797316318
Epoch: Jul 14, 2026 • Age: 10 hours

Current Status

Altitude 499.1 km
Apogee / Perigee N/A
Velocity 7.62 km/s
Sub-Earth Point -32.47°S, 28.64°W
Launch Date Nov 7, 2020
Age 5.6 years
Type other

Technical Details

Classification Payload
Mass 10.00 kg
Dry Mass 10.00 kg
Total Mass 10.00 kg
Length 0.30 m
Diameter 0.20 m
Span 0.30 m
Shape Box
Manufacturer GOMSP
Bus Type Cubesat 6U
Phase Status In Orbit
Owner/State KLEOS/L

Most Searched